Location: Unspecified
(0.0000°N, 0.0000°E)
Time: 23:19:54
(UTC+00:00)

SR - Visible Passes

Search period start: 27 October 2021 00:00
Search period end: 06 November 2021 00:00
Orbit: 583 x 872 km, 66.7° (Epoch: 27 October)

Date Brightness Start Highest point End Pass type
(mag) Time Alt. Az. Time Alt. Az. Time Alt. Az.
27 Oct ? 19:38:04 10° NW 19:41:57 29° WSW 19:46:07 10° S visible
28 Oct ? 18:47:41 10° NNW 18:52:09 85° WSW 18:57:00 10° SSE visible
29 Oct ? 19:42:41 10° W 19:44:19 12° WSW 19:46:00 10° SW visible
30 Oct ? 18:50:23 10° NW 18:54:25 32° WSW 18:58:45 10° S visible
31 Oct ? 18:00:08 10° NNW 18:04:36 86° ENE 18:09:29 10° SSE visible
01 Nov ? 04:46:45 10° SE 04:49:51 15° ESE 04:52:51 10° ENE visible
01 Nov ? 18:54:32 10° W 18:56:46 13° WSW 18:59:03 10° SW visible
02 Nov ? 18:02:42 10° NW 18:06:51 36° WSW 18:11:21 10° S visible
03 Nov ? 04:47:12 10° S 04:52:14 33° ESE 04:56:56 10° NE visible
04 Nov ? 03:59:40 10° SE 04:02:19 13° ESE 04:04:52 10° E visible
04 Nov ? 18:06:33 10° WNW 18:09:12 15° WSW 18:11:57 10° SSW visible
05 Nov ? 04:48:55 10° SSW 04:54:32 77° ESE 04:59:42 10° NNE visible
